Regional Weather Roundup
Issued by NWS

Home | Current Version | Previous Version | Graphics & Text | Print | Product List | Glossary On
Versions: 1 2 3 4 5 6 7 8 9 10 11 12 13 14 15 16 17 18 19 20 21 22 23 24 25 26 27 28 29 30 31 32 33 34 35 36 37 38 39 40 41 42 43 44 45 46 47 48 49 50
510
ASUS43 KMPX 272301
RWRMN
WEATHER ROUNDUP FOR MINNESOTA
NATIONAL WEATHER SERVICE TWIN CITIES/CHANHASSEN MN
600 PM CDT SAT AUG 27 2016


NOTE: "FAIR" INDICATES FEW OR NO CLOUDS BELOW 12,000 FEET WITH NO
SIGNIFICANT WEATHER AND/OR OBSTRUCTIONS TO VISIBILITY. N/A MEANS
CURRENT SKY AND/OR WEATHER CONDITIONS ARE NOT AVAILABLE.

MNZ060>063-068>070-280000-
   Twin Cities Metro

CITY           SKY/WX    TMP DP  RH WIND       PRES   REMARKS
TWIN CITIES    CLOUDY    67  62  84 SW5       30.00S
ST PAUL        CLOUDY    67  64  90 S5        30.01R
CRYSTAL        CLOUDY    66  61  84 CALM      29.99R
BLAINE         CLOUDY    66  64  94 S3        30.00R
LAKEVILLE      CLOUDY    66  66 100 CALM      30.00S
EDEN PRAIRIE   CLOUDY    68  62  81 SW3       29.99R
LAKEVILLE      CLOUDY    66  66 100 CALM      30.00S
SOUTH ST PAUL  CLOUDY    66  65  95 CALM      30.00S
LAKE ELMO      CLOUDY    66  63  88 SW6       30.02R
$$
MNZ001>005-007-008-013>017-022>024-027-028-280000-
   Northwest Minnesota

CITY           SKY/WX    TMP DP  RH WIND       PRES   REMARKS
BEMIDJI        PTSUNNY   62  56  80 SE9       29.97R
HALLOCK        LGT RAIN  64  63  94 S6        29.89F
ROSEAU         CLOUDY    64  55  72 S8        29.94S
WARROAD        PTSUNNY   63  59  88 CALM      29.94F
THIEF RVR FALL MOSUNNY   65  59  81 S6        29.95R
CROOKSTON      CLOUDY    64  61  88 S6        29.93S
FOSSTON        MOSUNNY   63  57  82 SE6       29.96R
DETROIT LAKES  SUNNY     70  59  68 S10       29.97R
MOORHEAD       SUNNY     72  59  64 S13G18    29.93S
PARK RAPIDS    MOSUNNY   71  56  58 SW7       29.98S
MAHNOMEN       FAIR      64  59  84 S5        29.94F
$$
MNZ006-009>011-018-025>026-280000-
   North Central Minnesota

CITY           SKY/WX    TMP DP  RH WIND       PRES   REMARKS
BAUDETTE       CLOUDY    60  57  89 VRB3      29.96S
FLAG ISLAND    CLOUDY    63  57  82 CALM      29.93F HAZE
INTL FALLS     LGT RAIN  57  55  93 S3        30.01R
WASKISH        CLOUDY    57  55  94 N5        29.97
BIG FORK       CLOUDY    55  54  94 E5        30.00F
LONGVILLE      CLOUDY    66  57  72 S3        29.99R
GRAND RAPIDS   RAIN      56  54  93 NW14G20   30.05R
CRANE LAKE     CLOUDY    59  59 100 CALM      30.01S
ORR            RAIN      59  54  82 NW13G23   29.99R
COOK           CLOUDY    64  55  72 SE5       29.99F
WALKER         FAIR      61  56  84 CALM      29.99S THUNDER
$$
MNZ012-019>021-037-280000-
   Northeast Minnesota

CITY           SKY/WX    TMP DP  RH WIND       PRES   REMARKS
DULUTH         CLOUDY    63  58  83 E7        30.02S
ELY            CLOUDY    64  52  63 SE10      30.01F
HIBBING        CLOUDY    63  55  75 S5        30.00S
EVELETH        CLOUDY    65  55  69 SE12      30.00F
DULUTH HARBOR  CLOUDY    64  61  88 NE13      30.01S
TWO HARBORS    LGT RAIN  64  59  82 NE7       30.01R
SILVER BAY     CLOUDY    63  57  82 E5        30.02S
G MARAIS ARPRT CLOUDY    59  48  67 CALM      30.07S
$$
MNZ029>031-032-039>041-046>048-054>057-064-280000-
   West Central Minnesota

CITY           SKY/WX    TMP DP  RH WIND       PRES   REMARKS
FERGUS FALLS   MOSUNNY   64  59  82 S10       29.98R
WHEATON        SUNNY     75  63  64 SE10      29.96S
MORRIS         SUNNY     72  57  60 SE7       29.97S
ALEXANDRIA     PTSUNNY   68  57  68 S5        30.02R
ELBOW LAKE     FAIR      70  59  69 SE12      29.98R
WADENA         MOSUNNY   68  57  68 CALM      29.97R
GLENWOOD       MOSUNNY   68  59  73 S3        30.01S
APPLETON       MOSUNNY   73  61  64 SE6       29.97S
BENSON         MOSUNNY   72  57  60 SW3       29.99S
ORTONVILLE     SUNNY     73  61  64 SE10      29.96R
MADISON        MOSUNNY   73  61  64 S8        29.97R
WILLMAR        PTSUNNY   72  63  73 CALM      30.01R
$$
MNZ033>034-036-042>043-049>051-058-059-280000-
   Central Minnesota

CITY           SKY/WX    TMP DP  RH WIND       PRES   REMARKS
ST CLOUD       CLOUDY    63  62  97 CALM      30.01S
SAUK CENTRE    CLOUDY    67  59  76 S5        30.01R
PAYNESVILLE    CLOUDY    67  60  78 CALM      30.01S
AITKIN         CLOUDY    66  57  72 S6        30.00S
PINE RIVER     MOSUNNY   66  57  72 S8        30.01S
BRAINERD       CLOUDY    66  58  75 S9        29.99F
STAPLES        SUNNY     64  55  72 S9G17     29.97F
LONG PRAIRIE   CLOUDY    64  57  77 SE5       30.02R
LITTLE FALLS   CLOUDY    64  55  72 CALM      30.01S
LITCHFIELD     CLOUDY    70  63  78 CALM      30.00S
BUFFALO        CLOUDY    66  61  82 CALM      30.01S
MAPLE LAKE     CLOUDY    66  64  94 N5        30.01S
HUTCHINSON     CLOUDY    71  63  75 SW5       30.01S
$$
MNZ037-044-045-052-053-280000-
   East Central Minnesota

CITY           SKY/WX    TMP DP  RH WIND       PRES   REMARKS
PRINCETON        N/A     64  63  94 CALM      30.01S FOG
MORA           DRIZZLE   59  57  94 CALM      30.03S
CAMBRIDGE      DRIZZLE   64  61  88 N3        30.00R
RUSH CITY      LGT RAIN  62  60  94 CALM      30.02R
MOOSE LAKE     LGT RAIN  63  59  88 SW3       30.00S
HINCKLEY       DRIZZLE   61  61 100 CALM      30.02R
CLOQUET        DRIZZLE   63  59  88 CALM      30.02S
MCGREGOR       CLOUDY    63  59  88 SE6       30.02S
$$
MNZ071>073-080-081-089-090-097-098-280000-
   Southwest Minnesota

CITY           SKY/WX    TMP DP  RH WIND       PRES   REMARKS
MONTEVIDEO     MOSUNNY   75  63  64 SW5       30.00R
GRANITE FALLS  MOSUNNY   72  63  74 S5        30.00R
CANBY          SUNNY     74  61  62 SW6       29.98S
MARSHALL       MOSUNNY   74  62  66 SW8       29.98S
REDWOOD FALLS  PTSUNNY   72  62  71 S7        29.98S
OLIVIA         PTSUNNY   70  63  78 SW5       29.99R
PIPESTONE      SUNNY     73  61  64 SW6       30.00S
WINDOM         MOSUNNY   73  63  68 S6        30.00S
JACKSON          N/A     73  59  60 SW7       30.01S
TRACY          MOSUNNY   74  63  70 SW6       29.99S
SLAYTON        SUNNY     72  61  68 SW7       30.01S
$$
MNZ065>067-074>077-082>085-091>093-280000-
   South Central Minnesota

CITY           SKY/WX    TMP DP  RH WIND       PRES   REMARKS
MANKATO        CLOUDY    72  63  73 W6        30.00S
NEW ULM        PTSUNNY   72  64  78 SW6       29.99S
ST JAMES       MOSUNNY   68  57  68 SW7       30.01R
FAIRMONT       MOSUNNY   73  64  73 W6        30.01R
GLENCOE        CLOUDY    70  65  84 CALM      30.00R
FARIBAULT      PTSUNNY   70  64  83 SW3       30.01S
OWATONNA       MOSUNNY   70  63  78 CALM      30.01S
WASECA         CLOUDY    70  63  78 W5        30.03R
ALBERT LEA     MOSUNNY   72  64  78 W3        30.01S
$$
MNZ078>079-086>088-094>096-280000-
   Southeast Minnesota

CITY           SKY/WX    TMP DP  RH WIND       PRES   REMARKS
ROCHESTER      CLOUDY    70  65  84 SW5       30.02S
RED WING       CLOUDY    66  64  94 CALM      30.00R
DODGE CENTER   CLOUDY    70  64  83 W5        30.02S
WINONA         CLOUDY    70  64  83 SE5       30.01S
AUSTIN         CLOUDY    72  64  78 CALM      30.01S
PRESTON        CLOUDY    70  64  82 CALM      30.03S
$$
ABBREVIATIONS USED IN REMARKS
   TC - TEMPERATURES IN CELSIUS
  WCI - WIND CHILL INDEX
   HX - HEAT INDEX
  VSB - VISIBILITY
$$




USA.gov is the U.S. government's official web portal to all federal, state and local government web resources and services.